Beatrice, NE

9:16 PM CST on February 07, 2016 (GMT -0600)
Beatrice Municipal

Weather History for KBIE - December, 2012

Change the Weather History Date:

Thursday, December 13, 2012

  Actual Average Record
Temperature  
Mean Temperature 40 °F -  
Max Temperature 53 °F 42 °F 61 °F (1975)
Min Temperature 26 °F 21 °F -12 °F (1961)
Degree Days  
Heating Degree Days 25    
Moisture  
Dew Point 16 °F    
Average Humidity 40    
Maximum Humidity 61    
Minimum Humidity 22    
Precipitation  
Precipitation 0.00 in - - ()
Sea Level Pressure  
Sea Level Pressure 30.02 in    
Wind  
Wind Speed 9 mph (South)    
Max Wind Speed 15 mph    
Max Gust Speed 18 mph    
Visibility 10 miles    
Events      
Averages and records for this station are not official NWS values.
T = Trace of Precipitation, MM = Missing Value Source: NWS Daily Summary

Daily Weather History Graph

Daily Weather History Graph

Search for Another Location

Airport or City:

Trip Planner

Search our weather history database for the weather conditions in past years. The results will help you decide how hot, cold, wet, or windy it might be!

Date:

Astronomy

Dec. 13, 2012 Rise Set
Actual Time 7:41 AM CST 5:01 PM CST
Civil Twilight 7:10 AM CST 5:32 PM CST
Nautical Twilight 6:36 AM CST 6:06 PM CST
Astronomical Twilight 6:03 AM CST 6:39 PM CST
Moon 7:51 AM CST (12/13) 5:45 PM CST (12/13)
Length of Visible Light 10h 21m
Length of Day
9h 19m
New Moon, 0% of the Moon is Illuminated
Dec 13
New Moon
Dec 19
First Quarter
Dec 28
Full
Jan 4
Last Quarter
Jan 11
New

Hourly Weather History & Observations

Time (CST) Temp. Windchill Dew Point Humidity Pressure Visibility Wind Dir Wind Speed Gust Speed Precip Events Conditions
12:15 AM 39.0 °F 30.6 °F 12.2 °F 33% 29.98 in 10.0 mi South 15.0 mph - N/A   Clear
12:35 AM 39.0 °F 31.0 °F 12.2 °F 33% 29.98 in 10.0 mi South 13.8 mph - N/A   Clear
12:55 AM 38.7 °F 30.1 °F 12.6 °F 34% 29.97 in 10.0 mi South 15.0 mph - N/A   Clear
1:15 AM 38.7 °F 30.9 °F 12.7 °F 35% 29.98 in 10.0 mi South 12.7 mph - N/A   Clear
1:35 AM 38.3 °F 30.9 °F 13.1 °F 36% 29.98 in 10.0 mi South 11.5 mph 18.4 mph N/A   Clear
1:55 AM 37.9 °F 30.9 °F 13.1 °F 36% 29.98 in 10.0 mi South 10.4 mph - N/A   Clear
2:15 AM 37.4 °F 30.3 °F 13.8 °F 38% 29.98 in 10.0 mi South 10.4 mph - N/A   Clear
2:35 AM 38.1 °F 31.2 °F 14.0 °F 37% 29.99 in 10.0 mi South 10.4 mph - N/A   Clear
2:55 AM 37.8 °F 31.8 °F 14.2 °F 38% 30.00 in 10.0 mi South 8.1 mph - N/A   Clear
3:15 AM 37.2 °F 31.9 °F 14.7 °F 40% 30.00 in 10.0 mi South 6.9 mph - N/A   Clear
3:35 AM 37.0 °F 29.8 °F 14.7 °F 40% 30.00 in 10.0 mi SSW 10.4 mph - N/A   Clear
3:55 AM 36.7 °F 29.4 °F 14.9 °F 41% 30.00 in 10.0 mi SSW 10.4 mph - N/A   Clear
4:15 AM 35.8 °F 28.3 °F 15.1 °F 43% 30.00 in 10.0 mi South 10.4 mph - N/A   Clear
4:35 AM 35.6 °F 28.0 °F 15.1 °F 43% 29.99 in 10.0 mi South 10.4 mph - N/A   Clear
4:55 AM 34.9 °F 27.7 °F 15.4 °F 45% 29.99 in 10.0 mi South 9.2 mph - N/A   Clear
5:15 AM 35.6 °F 27.5 °F 15.4 °F 44% 29.99 in 10.0 mi South 11.5 mph - N/A   Clear
5:35 AM 35.6 °F 28.0 °F 15.4 °F 44% 30.00 in 10.0 mi South 10.4 mph 16.1 mph N/A   Clear
5:55 AM 35.1 °F 26.9 °F 15.4 °F 45% 30.00 in 10.0 mi South 11.5 mph - N/A   Clear
6:15 AM 34.7 °F 26.9 °F 15.6 °F 46% 30.00 in 10.0 mi South 10.4 mph - N/A   Clear
6:35 AM 33.8 °F 26.4 °F 15.6 °F 47% 30.01 in 10.0 mi South 9.2 mph - N/A   Clear
6:55 AM 33.3 °F 26.4 °F 15.8 °F 49% 30.01 in 10.0 mi South 8.1 mph - N/A   Clear
7:15 AM 33.1 °F 24.9 °F 15.8 °F 49% 30.02 in 10.0 mi SSW 10.4 mph - N/A   Clear
7:35 AM 32.9 °F 24.7 °F 16.0 °F 50% 30.02 in 10.0 mi South 10.4 mph - N/A   Clear
7:55 AM 32.0 °F 24.8 °F 16.2 °F 52% 30.03 in 10.0 mi SSW 8.1 mph - N/A   Clear
8:15 AM 32.0 °F 25.6 °F 16.2 °F 52% 30.03 in 10.0 mi South 6.9 mph - N/A   Clear
8:35 AM 32.0 °F 25.6 °F 16.5 °F 53% 30.04 in 10.0 mi South 6.9 mph - N/A   Clear
8:55 AM 33.6 °F 27.5 °F 17.1 °F 51% 30.04 in 10.0 mi South 6.9 mph - N/A   Clear
9:15 AM 34.7 °F 28.8 °F 16.7 °F 48% 30.04 in 10.0 mi SSW 6.9 mph - N/A   Clear
9:35 AM 37.2 °F 30.6 °F 17.4 °F 45% 30.05 in 10.0 mi SSW 9.2 mph - N/A   Clear
9:55 AM 38.3 °F 31.9 °F 17.8 °F 44% 30.04 in 10.0 mi SSW 9.2 mph - N/A   Clear
10:15 AM 40.8 °F 34.1 °F 17.6 °F 39% 30.05 in 10.0 mi SW 11.5 mph - N/A   Clear
10:35 AM 41.4 °F 35.7 °F 18.1 °F 39% 30.05 in 10.0 mi SSW 9.2 mph - N/A   Clear
10:55 AM 44.8 °F 39.4 °F 17.6 °F 34% 30.05 in 10.0 mi SW 10.4 mph - N/A   Clear
11:15 AM 46.4 °F 41.5 °F 16.7 °F 31% 30.05 in 10.0 mi WSW 10.4 mph - N/A   Clear
11:35 AM 47.3 °F - 16.5 °F 29% 30.05 in 10.0 mi SW 6.9 mph - N/A   Clear
11:55 AM 48.6 °F - 16.3 °F 28% 30.05 in 10.0 mi SW 4.6 mph - N/A   Clear
12:15 PM 50.2 °F - 16.5 °F 26% 30.04 in 10.0 mi SW 5.8 mph - N/A   Clear
12:35 PM 51.1 °F - 16.2 °F 25% 30.04 in 10.0 mi SW 4.6 mph - N/A   Clear
12:55 PM 52.2 °F - 16.0 °F 24% 30.03 in 10.0 mi SSW 6.9 mph - N/A   Clear
1:15 PM 52.7 °F - 15.8 °F 23% 30.03 in 10.0 mi South 8.1 mph - N/A   Clear
1:35 PM 52.3 °F - 16.0 °F 24% 30.03 in 10.0 mi SSW 8.1 mph - N/A   Clear
1:55 PM 52.3 °F - 15.8 °F 24% 30.02 in 10.0 mi South 6.9 mph - N/A   Clear
2:15 PM 53.1 °F - 15.6 °F 23% 30.02 in 10.0 mi South 5.8 mph - N/A   Clear
2:35 PM 53.8 °F - 15.8 °F 22% 30.02 in 10.0 mi SSW 5.8 mph - N/A   Clear
2:55 PM 53.1 °F - 15.8 °F 23% 30.02 in 10.0 mi South 6.9 mph - N/A   Clear
3:15 PM 52.9 °F - 15.8 °F 23% 30.02 in 10.0 mi South 6.9 mph - N/A   Clear
3:35 PM 52.7 °F - 16.0 °F 23% 30.02 in 10.0 mi South 4.6 mph - N/A   Clear
3:55 PM 52.7 °F - 16.3 °F 24% 30.03 in 10.0 mi South 5.8 mph - N/A   Clear
4:15 PM 52.2 °F - 16.5 °F 24% 30.03 in 10.0 mi SSW 3.5 mph - N/A   Clear
4:35 PM 50.7 °F - 16.3 °F 26% 30.02 in 10.0 mi Calm Calm - N/A   Clear
4:55 PM 50.0 °F - 15.8 °F 26% 30.03 in 10.0 mi Calm Calm - N/A   Clear
5:15 PM 44.6 °F - 15.8 °F 31% 30.03 in 10.0 mi Calm Calm - N/A   Clear
5:35 PM 44.6 °F 43.1 °F 17.6 °F 34% 30.03 in 10.0 mi ESE 3.5 mph - N/A   Clear
6:15 PM 40.3 °F - 16.3 °F 38% 30.04 in 10.0 mi Calm Calm - N/A   Clear
6:35 PM 39.2 °F - 17.6 °F 42% 30.05 in 10.0 mi Calm Calm - N/A   Clear
6:55 PM 37.4 °F - 17.6 °F 45% 30.05 in 10.0 mi Calm Calm - N/A   Clear
7:15 PM 36.7 °F - 17.1 °F 45% 30.05 in 10.0 mi Calm Calm - N/A   Clear
7:35 PM 32.0 °F 28.7 °F 16.2 °F 52% 30.05 in 10.0 mi ENE 3.5 mph - N/A   Clear
7:55 PM 32.2 °F - 15.4 °F 50% 30.05 in 10.0 mi Calm Calm - N/A   Clear
8:15 PM 32.0 °F - 15.8 °F 51% 30.05 in 10.0 mi Calm Calm - N/A   Clear
8:35 PM 32.0 °F - 15.8 °F 51% 30.05 in 10.0 mi Calm Calm - N/A   Clear
8:55 PM 29.8 °F - 15.4 °F 55% 30.04 in 10.0 mi Calm Calm - N/A   Clear
9:15 PM 30.9 °F 27.5 °F 15.8 °F 54% 30.04 in 10.0 mi ENE 3.5 mph - N/A   Clear
9:35 PM 28.4 °F 22.2 °F 14.7 °F 57% 30.04 in 10.0 mi NE 5.8 mph - N/A   Clear
9:55 PM 29.7 °F 26.1 °F 15.4 °F 55% 30.05 in 10.0 mi ENE 3.5 mph - N/A   Clear
10:15 PM 28.9 °F 23.9 °F 15.8 °F 58% 30.05 in 10.0 mi NE 4.6 mph - N/A   Clear
10:35 PM 29.3 °F - 16.3 °F 58% 30.05 in 10.0 mi Calm Calm - N/A   Clear
10:55 PM 27.0 °F 23.0 °F 15.3 °F 61% 30.04 in 10.0 mi ENE 3.5 mph - N/A   Clear
11:15 PM 28.0 °F - 15.4 °F 59% 30.04 in 10.0 mi Calm Calm - N/A   Clear
11:35 PM 27.7 °F - 14.9 °F 59% 30.04 in 10.0 mi Calm Calm - N/A   Clear
11:55 PM 26.6 °F - 14.0 °F 59% 30.03 in 10.0 mi Calm Calm - N/A   Clear